Location: Brabourne
(51.1333°N, 1.0000°E)
Time: 07:03:28
(UTC+00:00)

USA 305 - Pass Details

Date: 20 June 2021
Orbit: 558 x 580 km, 54.0° (Epoch: 13 July)

Event Time Altitude Azimuth Distance (km) Brightness Sun altitude
Exits shadow 02:46:14 - 240° (WSW) 2,104 5.2 -6.7°
Reaches altitude 10° 02:46:54 10° 240° (WSW) 1,843 4.9 -6.7°
Maximum altitude 02:51:05 77° 154° (SSE) 579 2.9 -6.2°
Drops below altitude 10° 02:55:18 10° 69° (ENE) 1,858 6.6 -5.8°
Sets 02:57:33 0° 68° (ENE) 2,759 7.7 -5.6°
